Погода в Алешниках

Россия / Волгоградская область     50°53′55″N   45°10′10″E
темп.,
°C
ветер,
м/с
пор.,
м/с
влажн.,
%
обл.,
%
осадки,
мм/ч
давл.,
гПа
погр.,
м
16 октября, сб
сб1600:00+6зюз22621 0.0 102510
03:00+5зюз116957 0.0 102510
06:00+4ююв117226 0.0 102510
09:00+9юв235183 0.0 1025296
12:00+12ююв334163 0.0 1023945
15:00+13ююв333850 0.0 10211023
18:00+9юв345291 0.0 102151
21:00+9юв3654100 0.0 1020103
17 октября, вс
вс1700:00+9вюв3357100 0.0 101963
03:00+8в2262100 0.0 101916
06:00+7всв3366100 0.0 101836
09:00+10в3457100 0.0 1018206
12:00+12вюв3352100 0.0 1017264
15:00+13юв4444100 0.0 1016429
18:00+10юв256698 0.1 1016139
21:00+9юв3570100 0.1 1016161
18 октября, пн
пн1800:00+10юв1164100 0.0 101515
03:00+10ююв1262100 0.0 101425
06:00+9юв0063100 0.0 101410
09:00+11зсз115788 0.0 1014230
12:00+14зсз334570 0.0 1013857
15:00+15зсз4446100 0.0 10121307
18:00+10зсз366357 0.0 1013109
21:00+8зсз356790 0.0 101486
19 октября, вт
вт1900:00+7з3570100 0.0 101494
03:00+5з347397 0.0 101363
06:00+5зюз3473100 0.0 101367
09:00+7з4660100 0.0 1013346
12:00+9з5754100 0.0 10121145
15:00+7зсз5772100 0.1 1012786
18:00+5сз688799 0.1 1014626
21:00+2сз37892 0.1 1015185
20 октября, ср
ср2000:00+1з39935 0.0 1015219
03:000сз49925 0.0 1016208
06:000сз410945 0.0 1018277
09:00+2ссз687781 0.0 1020643
12:00+6ссз784799 0.0 10201627
15:00+6ссз784792 0.0 10211535
18:00+3ссз596174 0.0 1024410
21:00+1сз37747 0.0 1025164